Change the Weather History Date:

Saturday, March 15, 2014

  Actual Average Record
Temperature  
Mean Temperature 60 °F -  
Max Temperature 70 °F 71 °F 86 °F (2008)
Min Temperature 51 °F 47 °F 25 °F (1988)
Degree Days  
Heating Degree Days 5    
Growing Degree Days 10 (Base 50)    
Moisture  
Dew Point 55 °F    
Average Humidity 81    
Maximum Humidity 93    
Minimum Humidity 61    
Precipitation  
Precipitation 0.00 in - - ()
Sea Level Pressure  
Sea Level Pressure 29.98 in    
Wind  
Wind Speed 4 mph (ESE)    
Max Wind Speed 8 mph    
Max Gust Speed -    
Visibility 9 miles    
Events      
Averages and records for this station are not official NWS values.
T = Trace of Precipitation, MM = Missing Value Source: NWS Daily Summary

Daily Weather History Graph

Daily Weather History Graph

Search for Another Location

Airport or City:

Trip Planner

Search our weather history database for the weather conditions in past years. The results will help you decide how hot, cold, wet, or windy it might be!

Date:

Astronomy

Mar. 15, 2014 Rise Set
Actual Time 7:11 AM CDT 7:10 PM CDT
Civil Twilight 6:47 AM CDT 7:34 PM CDT
Nautical Twilight 6:19 AM CDT 8:02 PM CDT
Astronomical Twilight 5:51 AM CDT 8:30 PM CDT
Moon 6:30 PM CDT (3/15) 6:21 AM CDT (3/15)
Length of Visible Light 12h 46m
Length of Day
11h 58m
Waxing Gibbous, 99% of the Moon is Illuminated
Mar 15
Waxing Gibbous
Mar 16
Full
Mar 23
Last Quarter
Mar 30
New
Apr 7
First Quarter

Hourly Weather History & Observations

Time (CDT) Temp. Dew Point Humidity Pressure Visibility Wind Dir Wind Speed Gust Speed Precip Events Conditions
12:53 AM 55.9 °F 51.1 °F 84% 30.11 in 10.0 mi SSE 3.5 mph - N/A   Overcast
1:53 AM 55.0 °F 50.0 °F 83% 30.08 in 10.0 mi SSE 4.6 mph - N/A   Mostly Cloudy
2:53 AM 54.0 °F 51.1 °F 90% 30.07 in 10.0 mi South 6.9 mph - N/A   Clear
3:53 AM 54.0 °F 50.0 °F 86% 30.06 in 10.0 mi Calm Calm - N/A   Clear
4:53 AM 51.1 °F 48.9 °F 92% 30.06 in 10.0 mi Calm Calm - N/A   Scattered Clouds
5:53 AM 53.1 °F 50.0 °F 89% 30.04 in 9.0 mi Calm Calm - N/A   Mostly Cloudy
6:53 AM 53.1 °F 50.0 °F 89% 30.05 in 9.0 mi Calm Calm - N/A   Mostly Cloudy
7:53 AM 52.0 °F 50.0 °F 93% 30.07 in 8.0 mi Calm Calm - N/A   Mostly Cloudy
8:53 AM 55.9 °F 53.1 °F 90% 30.07 in 8.0 mi Calm Calm - N/A   Overcast
9:53 AM 59.0 °F 54.0 °F 83% 30.09 in 7.0 mi ENE 3.5 mph - N/A   Overcast
10:53 AM 62.1 °F 55.9 °F 80% 30.09 in 10.0 mi SSE 6.9 mph - N/A   Overcast
11:53 AM 64.9 °F 55.0 °F 70% 30.07 in 10.0 mi East 5.8 mph - N/A   Overcast
12:53 PM 66.9 °F 55.0 °F 66% 30.04 in 10.0 mi East 6.9 mph - N/A   Overcast
1:53 PM 68.0 °F 54.0 °F 61% 30.01 in 10.0 mi ESE 8.1 mph - N/A   Overcast
2:53 PM 68.0 °F 55.0 °F 63% 29.96 in 10.0 mi Variable 4.6 mph - N/A   Overcast
3:53 PM 69.1 °F 55.0 °F 61% 29.93 in 10.0 mi Variable 6.9 mph - N/A   Overcast
4:53 PM 66.9 °F 57.0 °F 70% 29.91 in 10.0 mi ESE 6.9 mph - N/A   Overcast
5:53 PM 66.0 °F 57.0 °F 73% 29.89 in 10.0 mi Variable 4.6 mph - N/A   Scattered Clouds
6:12 PM 66.0 °F 57.9 °F 75% 29.91 in 10.0 mi Variable 6.9 mph - N/A   Mostly Cloudy
6:53 PM 64.9 °F 57.9 °F 78% 29.89 in 10.0 mi ESE 6.9 mph - N/A   Overcast
7:25 PM 64.9 °F 57.9 °F 78% 29.92 in 10.0 mi Variable 3.5 mph - N/A   Overcast
7:53 PM 64.9 °F 57.9 °F 78% 29.88 in 10.0 mi ENE 6.9 mph - N/A   Overcast
8:33 PM 64.0 °F 59.0 °F 84% 29.89 in 9.0 mi Variable 4.6 mph - 0.00 in   Overcast
8:53 PM 63.0 °F 60.1 °F 90% 29.88 in 8.0 mi East 4.6 mph - 0.00 in   Overcast
9:53 PM 62.1 °F 59.0 °F 90% 29.86 in 9.0 mi ESE 5.8 mph - 0.00 in   Overcast
10:53 PM 62.1 °F 60.1 °F 93% 29.84 in 8.0 mi SE 6.9 mph - N/A   Overcast
11:53 PM 62.1 °F 60.1 °F 93% 29.80 in 7.0 mi ESE 4.6 mph - N/A   Overcast